| time (UTC) | temp F | wind direction | speed knots | gust knots | rain 1hr in | rain 24hr in | rain mn in | humidity % | barometer mb |
| 20260505195019 | 83 | 160 | 2.6 | 15.6 | 0.00 | 0.00 | 0.00 | 31 | 1007.5 |
| 20260505194539 | 83 | 200 | 1.7 | 15.6 | 0.00 | 0.00 | 0.00 | 31 | 1007.4 |
| 20260505194018 | 82 | 192 | 4.3 | 16.5 | 0.00 | 0.00 | 0.00 | 32 | 1007.4 |
| 20260505193519 | 82 | 175 | 4.3 | 20.0 | 0.00 | 0.00 | 0.00 | 33 | 1007.4 |
| 20260505193041 | 83 | 195 | 1.7 | 20.0 | 0.00 | 0.00 | 0.00 | 34 | 1007.6 |
| 20260505192520 | 83 | 134 | 5.2 | 20.0 | 0.00 | 0.00 | 0.00 | 31 | 1007.6 |
| 20260505192017 | 83 | 209 | 2.6 | 17.4 | 0.00 | 0.00 | 0.00 | 32 | 1007.6 |
| 20260505191537 | 83 | 138 | 3.5 | 17.4 | 0.00 | 0.00 | 0.00 | 31 | 1007.6 |
| 20260505191019 | 83 | 225 | 2.6 | 11.3 | 0.00 | 0.00 | 0.00 | 34 | 1007.8 |
| 20260505190518 | 83 | 233 | 2.6 | 14.8 | 0.00 | 0.00 | 0.00 | 33 | 1008.1 |
| 20260505185520 | 84 | 213 | 4.3 | 9.6 | 0.00 | 0.00 | 0.00 | 33 | 1007.8 |
| 20260505185020 | 84 | 190 | 1.7 | 16.5 | 0.00 | 0.00 | 0.00 | 34 | 1008.1 |
| 20260505184536 | 83 | 167 | 0.0 | 16.5 | 0.00 | 0.00 | 0.00 | 35 | 1008.0 |
| 20260505184021 | 83 | 232 | 4.3 | 16.5 | 0.00 | 0.00 | 0.00 | 33 | 1008.2 |
| 20260505183518 | 83 | 143 | 0.9 | 14.8 | 0.00 | 0.00 | 0.00 | 35 | 1008.3 |
| 20260505183038 | 83 | 202 | 1.7 | 13.9 | 0.00 | 0.00 | 0.00 | 35 | 1008.4 |
| 20260505182517 | 83 | 232 | 3.5 | 13.0 | 0.00 | 0.00 | 0.00 | 32 | 1008.5 |
| 20260505182019 | 83 | 196 | 2.6 | 13.0 | 0.00 | 0.00 | 0.00 | 35 | 1008.5 |
| 20260505181541 | 83 | 216 | 2.6 | 13.0 | 0.00 | 0.00 | 0.00 | 34 | 1008.6 |
| 20260505181020 | 83 | 0 | 2.6 | 13.9 | 0.00 | 0.00 | 0.00 | 34 | 1008.5 |
| 20260505180519 | 83 | 165 | 3.5 | 13.9 | 0.00 | 0.00 | 0.00 | 34 | 1008.7 |
| 20260505180041 | 83 | 0 | 2.6 | 13.9 | 0.00 | 0.00 | 0.00 | 34 | 1008.6 |
| 20260505175519 | 83 | 144 | 3.5 | 13.9 | 0.00 | 0.00 | 0.00 | 33 | 1008.8 |
| 20260505175020 | 83 | 176 | 2.6 | 9.6 | 0.00 | 0.00 | 0.00 | 35 | 1008.7 |
| 20260505174536 | 83 | 209 | 0.9 | 12.2 | 0.00 | 0.00 | 0.00 | 36 | 1008.7 |
| 20260505174018 | 82 | 259 | 2.6 | 12.2 | 0.00 | 0.00 | 0.00 | 37 | 1008.8 |
| 20260505173518 | 83 | 153 | 4.3 | 11.3 | 0.00 | 0.00 | 0.00 | 37 | 1008.8 |
| 20260505173035 | 83 | 198 | 1.7 | 11.3 | 0.00 | 0.00 | 0.00 | 36 | 1009.0 |
| 20260505172517 | 83 | 158 | 1.7 | 8.7 | 0.00 | 0.00 | 0.00 | 38 | 1008.9 |
| 20260505172022 | 83 | 0 | 2.6 | 8.7 | 0.00 | 0.00 | 0.00 | 37 | 1009.0 |
| 20260505171535 | 83 | 178 | 0.9 | 8.7 | 0.00 | 0.00 | 0.00 | 39 | 1008.9 |
| 20260505171023 | 83 | 0 | 0.9 | 8.7 | 0.00 | 0.00 | 0.00 | 38 | 1009.0 |
| 20260505170517 | 83 | 215 | 1.7 | 8.7 | 0.00 | 0.00 | 0.00 | 36 | 1009.1 |
| 20260505170036 | 83 | 332 | 0.9 | 9.6 | 0.00 | 0.00 | 0.00 | 36 | 1009.0 |
| 20260505165518 | 82 | 226 | 1.7 | 9.6 | 0.00 | 0.00 | 0.00 | 36 | 1009.2 |
| 20260505165021 | 82 | 234 | 1.7 | 11.3 | 0.00 | 0.00 | 0.00 | 38 | 1009.1 |
| 20260505164537 | 82 | 0 | 1.7 | 11.3 | 0.00 | 0.00 | 0.00 | 39 | 1009.2 |
| 20260505164018 | 82 | 205 | 2.6 | 13.9 | 0.00 | 0.00 | 0.00 | 38 | 1009.4 |
| 20260505163518 | 82 | 296 | 2.6 | 13.9 | 0.00 | 0.00 | 0.00 | 38 | 1009.1 |
| 20260505163034 | 82 | 0 | 1.7 | 7.0 | 0.00 | 0.00 | 0.00 | 39 | 1009.4 |
| 20260505162528 | 81 | 192 | 0.9 | 10.4 | 0.00 | 0.00 | 0.00 | 39 | 1009.5 |
| 20260505162017 | 81 | 310 | 1.7 | 10.4 | 0.00 | 0.00 | 0.00 | 37 | 1009.4 |
| 20260505161542 | 81 | 266 | 2.6 | 9.6 | 0.00 | 0.00 | 0.00 | 39 | 1009.5 |
| 20260505161018 | 81 | 333 | 0.9 | 9.6 | 0.00 | 0.00 | 0.00 | 42 | 1009.6 |
| 20260505160521 | 80 | 275 | 0.9 | 10.4 | 0.00 | 0.00 | 0.00 | 40 | 1009.5 |
| 20260505153036 | 79 | 286 | 0.9 | 7.0 | 0.00 | 0.00 | 0.00 | 44 | 1010.1 |
| 20260505152517 | 79 | 221 | 0.9 | 7.0 | 0.00 | 0.00 | 0.00 | 43 | 1010.2 |
| 20260505152021 | 79 | 0 | 0.9 | 6.1 | 0.00 | 0.00 | 0.00 | 45 | 1010.2 |
| 20260505151534 | 78 | 0 | 0.9 | 6.1 | 0.00 | 0.00 | 0.00 | 41 | 1010.2 |
| 20260505151018 | 78 | 0 | 0.0 | 9.6 | 0.00 | 0.00 | 0.00 | 44 | 1010.2 |
| 20260505150519 | 77 | 0 | 1.7 | 9.6 | 0.00 | 0.00 | 0.00 | 44 | 1010.2 |
| 20260505140519 | 73 | 241 | 0.0 | 6.1 | 0.00 | 0.00 | 0.00 | 50 | 1011.0 |
| 20260505125017 | 67 | 0 | 0.9 | 7.0 | 0.00 | 0.00 | 0.00 | 58 | 1010.9 |
| 20260505124536 | 67 | 246 | 0.9 | 4.3 | 0.00 | 0.00 | 0.00 | 60 | 1010.9 |
| 20260505124017 | 67 | 251 | 0.0 | 5.2 | 0.00 | 0.00 | 0.00 | 61 | 1010.9 |
| 20260505123517 | 66 | 0 | 0.9 | 5.2 | 0.00 | 0.00 | 0.00 | 61 | 1011.0 |
| 20260505123035 | 67 | 0 | 0.0 | 2.6 | 0.00 | 0.00 | 0.00 | 60 | 1011.0 |
| 20260505122517 | 66 | 0 | 0.0 | 3.5 | 0.00 | 0.00 | 0.00 | 63 | 1010.9 |
| 20260505122019 | 65 | 0 | 0.0 | 3.5 | 0.00 | 0.00 | 0.00 | 63 | 1010.9 |
| 20260505121537 | 65 | 0 | 0.0 | 5.2 | 0.00 | 0.00 | 0.00 | 62 | 1011.0 |
| 20260505121016 | 65 | 0 | 0.0 | 5.2 | 0.00 | 0.00 | 0.00 | 63 | 1010.8 |
| 20260505120523 | 64 | 0 | 0.0 | 3.5 | 0.00 | 0.00 | 0.00 | 65 | 1010.9 |
| 20260505120033 | 64 | 214 | 0.0 | 2.6 | 0.00 | 0.00 | 0.00 | 64 | 1010.8 |
| 20260505115516 | 64 | 0 | 0.0 | 0.0 | 0.00 | 0.00 | 0.00 | 66 | 1010.8 |
| 20260505115019 | 64 | 0 | 0.0 | 0.0 | 0.00 | 0.00 | 0.00 | 66 | 1010.8 |
| 20260505114535 | 63 | 0 | 0.0 | 0.0 | 0.00 | 0.00 | 0.00 | 68 | 1010.9 |
| 20260505114018 | 62 | 0 | 0.0 | 0.0 | 0.00 | 0.00 | 0.00 | 69 | 1010.9 |
| 20260505113517 | 61 | 0 | 0.0 | 0.0 | 0.00 | 0.00 | 0.00 | 71 | 1010.7 |
| 20260505113036 | 61 | 0 | 0.0 | 0.0 | 0.00 | 0.00 | 0.00 | 72 | 1010.8 |
| 20260505112517 | 60 | 0 | 0.0 | 0.0 | 0.00 | 0.00 | 0.00 | 74 | 1010.8 |
| 20260505112019 | 59 | 0 | 0.0 | 0.0 | 0.00 | 0.00 | 0.00 | 77 | 1010.7 |
| 20260505111530 | 57 | 0 | 0.0 | 0.0 | 0.00 | 0.00 | 0.00 | 80 | 1010.7 |
| 20260505111021 | 55 | 0 | 0.0 | 0.0 | 0.00 | 0.00 | 0.00 | 85 | 1010.8 |
| 20260505110520 | 54 | 0 | 0.0 | 0.0 | 0.00 | 0.00 | 0.00 | 85 | 1010.9 |
| 20260505102017 | 54 | 0 | 0.0 | 0.0 | 0.00 | 0.00 | 0.00 | 83 | 1010.7 |
| 20260505101535 | 54 | 0 | 0.0 | 0.0 | 0.00 | 0.00 | 0.00 | 83 | 1010.7 |
| 20260505101018 | 54 | 0 | 0.0 | 0.0 | 0.00 | 0.00 | 0.00 | 83 | 1010.8 |
| 20260505100517 | 53 | 0 | 0.0 | 0.0 | 0.00 | 0.00 | 0.00 | 84 | 1010.8 |
| 20260505100034 | 53 | 0 | 0.0 | 0.0 | 0.00 | 0.00 | 0.00 | 84 | 1010.8 |
| 20260505095517 | 53 | 0 | 0.0 | 0.0 | 0.00 | 0.00 | 0.00 | 85 | 1010.9 |
| 20260505095017 | 53 | 0 | 0.0 | 0.0 | 0.00 | 0.00 | 0.00 | 85 | 1010.8 |
| 20260505094535 | 52 | 0 | 0.0 | 0.0 | 0.00 | 0.00 | 0.00 | 85 | 1010.8 |
| 20260505094037 | 52 | 0 | 0.0 | 0.0 | 0.00 | 0.00 | 0.00 | 86 | 1010.8 |
| 20260505093518 | 52 | 0 | 0.0 | 0.0 | 0.00 | 0.00 | 0.00 | 86 | 1010.7 |
| 20260505093039 | 52 | 0 | 0.0 | 0.0 | 0.00 | 0.00 | 0.00 | 86 | 1010.7 |
| 20260505092519 | 52 | 0 | 0.0 | 0.0 | 0.00 | 0.00 | 0.00 | 86 | 1010.6 |
| 20260505092017 | 52 | 0 | 0.0 | 0.0 | 0.00 | 0.00 | 0.00 | 86 | 1009.9 |
| 20260505091536 | 52 | 0 | 0.0 | 0.0 | 0.00 | 0.00 | 0.00 | 85 | 1009.8 |
| 20260505091019 | 52 | 0 | 0.0 | 0.0 | 0.00 | 0.00 | 0.00 | 85 | 1009.7 |
| 20260505090517 | 52 | 0 | 0.0 | 0.0 | 0.00 | 0.00 | 0.00 | 84 | 1009.7 |
| 20260505090042 | 53 | 0 | 0.0 | 0.0 | 0.00 | 0.00 | 0.00 | 84 | 1009.9 |
| 20260505085517 | 53 | 0 | 0.0 | 0.0 | 0.00 | 0.00 | 0.00 | 84 | 1009.9 |
| 20260505085019 | 53 | 0 | 0.0 | 0.0 | 0.00 | 0.00 | 0.00 | 84 | 1009.8 |
| 20260505084546 | 53 | 0 | 0.0 | 0.0 | 0.00 | 0.00 | 0.00 | 84 | 1009.8 |
| 20260505084018 | 53 | 0 | 0.0 | 0.0 | 0.00 | 0.00 | 0.00 | 83 | 1009.8 |
| 20260505083523 | 53 | 0 | 0.0 | 0.0 | 0.00 | 0.00 | 0.00 | 83 | 1009.7 |
| 20260505083041 | 53 | 0 | 0.0 | 0.0 | 0.00 | 0.00 | 0.00 | 83 | 1009.8 |
| 20260505082517 | 53 | 0 | 0.0 | 0.0 | 0.00 | 0.00 | 0.00 | 82 | 1009.8 |
| 20260505082019 | 53 | 0 | 0.0 | 0.0 | 0.00 | 0.00 | 0.00 | 82 | 1009.9 |
| 20260505081535 | 53 | 0 | 0.0 | 0.0 | 0.00 | 0.00 | 0.00 | 81 | 1009.8 |
| 20260505081022 | 53 | 0 | 0.0 | 0.0 | 0.00 | 0.00 | 0.00 | 80 | 1009.8 |
| 20260505080521 | 53 | 0 | 0.0 | 0.0 | 0.00 | 0.00 | 0.00 | 80 | 1009.8 |
| 20260505080043 | 53 | 0 | 0.0 | 0.0 | 0.00 | 0.00 | 0.00 | 78 | 1009.8 |
| 20260505075516 | 53 | 0 | 0.0 | 0.0 | 0.00 | 0.00 | 0.00 | 77 | 1010.0 |
| 20260505075017 | 53 | 0 | 0.0 | 0.0 | 0.00 | 0.00 | 0.00 | 77 | 1009.9 |
| 20260505074535 | 53 | 0 | 0.0 | 0.0 | 0.00 | 0.00 | 0.00 | 76 | 1009.8 |
| 20260505074017 | 53 | 0 | 0.0 | 0.0 | 0.00 | 0.00 | 0.00 | 76 | 1009.8 |
| 20260505073521 | 53 | 0 | 0.0 | 0.0 | 0.00 | 0.00 | 0.00 | 76 | 1009.9 |
| 20260505073036 | 54 | 0 | 0.0 | 0.0 | 0.00 | 0.00 | 0.00 | 75 | 1009.8 |
| 20260505072518 | 54 | 0 | 0.0 | 0.0 | 0.00 | 0.00 | 0.00 | 75 | 1010.0 |
| 20260505072019 | 54 | 0 | 0.0 | 0.0 | 0.00 | 0.00 | 0.00 | 75 | 1009.7 |
| 20260505071547 | 54 | 0 | 0.0 | 0.0 | 0.00 | 0.00 | 0.00 | 74 | 1009.8 |
| 20260505071019 | 54 | 0 | 0.0 | 0.0 | 0.00 | 0.00 | 0.00 | 74 | 1009.7 |
| 20260505070519 | 55 | 0 | 0.0 | 0.0 | 0.00 | 0.00 | 0.00 | 74 | 1009.7 |
| 20260505070036 | 55 | 0 | 0.0 | 0.0 | 0.00 | 0.00 | 0.00 | 73 | 1009.6 |
| 20260505065521 | 55 | 0 | 0.0 | 0.0 | 0.00 | 0.00 | 0.00 | 72 | 1009.6 |
| 20260505065018 | 56 | 0 | 0.0 | 0.0 | 0.00 | 0.00 | 0.00 | 72 | 1009.7 |
| 20260505064537 | 56 | 0 | 0.0 | 0.0 | 0.00 | 0.00 | 0.00 | 71 | 1009.6 |
| 20260505064017 | 56 | 0 | 0.0 | 1.7 | 0.00 | 0.00 | 0.00 | 71 | 1009.8 |
| 20260505063516 | 56 | 0 | 0.0 | 1.7 | 0.00 | 0.00 | 0.00 | 71 | 1009.9 |
| 20260505063038 | 56 | 0 | 0.0 | 0.0 | 0.00 | 0.00 | 0.00 | 71 | 1009.7 |
| 20260505062520 | 57 | 0 | 0.0 | 0.0 | 0.00 | 0.00 | 0.00 | 70 | 1009.7 |
| 20260505062020 | 57 | 0 | 0.0 | 0.0 | 0.00 | 0.00 | 0.00 | 70 | 1009.7 |
| 20260505061542 | 57 | 0 | 0.0 | 0.0 | 0.00 | 0.00 | 0.00 | 69 | 1009.7 |
| 20260505061019 | 57 | 0 | 0.0 | 0.0 | 0.00 | 0.00 | 0.00 | 69 | 1009.8 |
| 20260505060518 | 57 | 0 | 0.0 | 0.0 | 0.00 | 0.00 | 0.00 | 69 | 1009.7 |
| 20260505060039 | 58 | 0 | 0.0 | 0.0 | 0.00 | 0.00 | 0.00 | 68 | 1009.7 |
| 20260505055518 | 58 | 0 | 0.0 | 0.9 | 0.00 | 0.00 | 0.00 | 68 | 1009.8 |
| 20260505055019 | 58 | 0 | 0.0 | 2.6 | 0.00 | 0.00 | 0.00 | 68 | 1009.7 |
| 20260505054541 | 58 | 0 | 0.0 | 2.6 | 0.00 | 0.00 | 0.00 | 68 | 1009.7 |
| 20260505054019 | 58 | 0 | 0.0 | 0.0 | 0.00 | 0.00 | 0.00 | 68 | 1009.7 |
| 20260505053518 | 58 | 0 | 0.0 | 2.6 | 0.00 | 0.00 | 0.00 | 67 | 1009.8 |
| 20260505053036 | 58 | 0 | 0.0 | 2.6 | 0.00 | 0.00 | 0.00 | 67 | 1009.8 |
| 20260505052517 | 58 | 0 | 0.0 | 0.9 | 0.00 | 0.00 | 0.00 | 67 | 1009.8 |
| 20260505052018 | 58 | 0 | 0.0 | 1.7 | 0.00 | 0.00 | 0.00 | 67 | 1009.8 |
| 20260505051531 | 58 | 0 | 0.0 | 1.7 | 0.00 | 0.00 | 0.00 | 66 | 1009.8 |
| 20260505051018 | 58 | 0 | 0.0 | 1.7 | 0.00 | 0.00 | 0.00 | 66 | 1009.9 |
| 20260505050515 | 59 | 0 | 0.0 | 1.7 | 0.00 | 0.00 | 0.00 | 65 | 1010.0 |
| 20260505041533 | 60 | 0 | 0.0 | 2.6 | 0.00 | 0.00 | 0.00 | 60 | 1010.1 |
| 20260505041018 | 60 | 0 | 0.0 | 2.6 | 0.00 | 0.00 | 0.00 | 59 | 1010.0 |
| 20260505040518 | 60 | 0 | 0.0 | 0.0 | 0.00 | 0.00 | 0.00 | 58 | 1010.0 |
| 20260505040037 | 60 | 0 | 0.0 | 0.0 | 0.00 | 0.00 | 0.00 | 58 | 1010.0 |
| 20260505035517 | 60 | 0 | 0.0 | 0.0 | 0.00 | 0.00 | 0.00 | 57 | 1010.0 |
| 20260505035018 | 61 | 0 | 0.0 | 0.9 | 0.00 | 0.00 | 0.00 | 56 | 1009.8 |
| 20260505034535 | 61 | 0 | 0.0 | 1.7 | 0.00 | 0.00 | 0.00 | 55 | 1009.9 |
| 20260505034019 | 61 | 0 | 0.0 | 1.7 | 0.00 | 0.00 | 0.00 | 54 | 1009.9 |
| 20260505033519 | 61 | 0 | 0.0 | 1.7 | 0.00 | 0.00 | 0.00 | 54 | 1010.0 |
| 20260505033039 | 61 | 0 | 0.0 | 0.9 | 0.00 | 0.00 | 0.00 | 53 | 1009.9 |
| 20260505032519 | 62 | 0 | 0.0 | 2.6 | 0.00 | 0.00 | 0.00 | 53 | 1010.1 |
| 20260505032019 | 62 | 0 | 0.0 | 2.6 | 0.00 | 0.00 | 0.00 | 52 | 1010.0 |
| 20260505031550 | 62 | 0 | 0.0 | 2.6 | 0.00 | 0.00 | 0.00 | 52 | 1010.0 |
| 20260505031019 | 62 | 192 | 0.0 | 2.6 | 0.00 | 0.00 | 0.00 | 51 | 1010.0 |
| 20260505030519 | 62 | 188 | 0.0 | 2.6 | 0.00 | 0.00 | 0.00 | 50 | 1010.1 |
| 20260505030035 | 62 | 188 | 0.0 | 2.6 | 0.00 | 0.00 | 0.00 | 51 | 1009.9 |
| 20260505025517 | 62 | 0 | 0.0 | 2.6 | 0.00 | 0.00 | 0.00 | 50 | 1010.1 |
| 20260505025018 | 62 | 0 | 0.0 | 3.5 | 0.00 | 0.00 | 0.00 | 50 | 1010.1 |
| 20260505024546 | 62 | 0 | 0.0 | 3.5 | 0.00 | 0.00 | 0.00 | 49 | 1010.0 |
| 20260505024018 | 62 | 193 | 0.0 | 3.5 | 0.00 | 0.00 | 0.00 | 48 | 1010.2 |
| 20260505023518 | 63 | 0 | 0.0 | 3.5 | 0.00 | 0.00 | 0.00 | 48 | 1010.2 |
| 20260505023041 | 62 | 0 | 0.0 | 2.6 | 0.00 | 0.00 | 0.00 | 48 | 1010.1 |
| 20260505022519 | 62 | 196 | 0.0 | 1.7 | 0.00 | 0.00 | 0.00 | 48 | 1010.1 |
| 20260505022019 | 62 | 0 | 0.0 | 1.7 | 0.00 | 0.00 | 0.00 | 47 | 1010.2 |
| 20260505021536 | 63 | 0 | 0.0 | 4.3 | 0.00 | 0.00 | 0.00 | 47 | 1010.2 |
| 20260505021019 | 63 | 194 | 0.0 | 4.3 | 0.00 | 0.00 | 0.00 | 47 | 1010.2 |
| 20260505020518 | 63 | 207 | 0.0 | 2.6 | 0.00 | 0.00 | 0.00 | 47 | 1010.4 |
| 20260505020034 | 62 | 0 | 0.0 | 2.6 | 0.00 | 0.00 | 0.00 | 47 | 1010.3 |
| 20260505015516 | 62 | 196 | 0.0 | 2.6 | 0.00 | 0.00 | 0.00 | 47 | 1010.2 |
| 20260505015017 | 62 | 0 | 0.0 | 1.7 | 0.00 | 0.00 | 0.00 | 48 | 1010.1 |
| 20260505014555 | 62 | 190 | 0.0 | 0.9 | 0.00 | 0.00 | 0.00 | 48 | 1010.1 |
| 20260505014018 | 61 | 0 | 0.0 | 0.0 | 0.00 | 0.00 | 0.00 | 49 | 1010.1 |
| 20260505013518 | 61 | 0 | 0.0 | 0.0 | 0.00 | 0.00 | 0.00 | 48 | 1010.2 |
| 20260505013032 | 61 | 0 | 0.0 | 0.0 | 0.00 | 0.00 | 0.00 | 49 | 1010.1 |
| 20260505012516 | 61 | 0 | 0.0 | 0.0 | 0.00 | 0.00 | 0.00 | 48 | 1010.1 |
| 20260505012017 | 62 | 0 | 0.0 | 0.0 | 0.00 | 0.00 | 0.00 | 48 | 1010.0 |
| 20260505011546 | 62 | 0 | 0.0 | 0.0 | 0.00 | 0.00 | 0.00 | 48 | 1009.9 |
| 20260505011015 | 62 | 0 | 0.0 | 0.0 | 0.00 | 0.00 | 0.00 | 47 | 1009.9 |
| 20260505010517 | 62 | 0 | 0.0 | 0.0 | 0.00 | 0.00 | 0.00 | 47 | 1009.8 |
| 20260505010036 | 62 | 0 | 0.0 | 0.0 | 0.00 | 0.00 | 0.00 | 47 | 1009.7 |
| 20260505005519 | 62 | 0 | 0.0 | 0.0 | 0.00 | 0.00 | 0.00 | 47 | 1009.6 |
| 20260505005019 | 63 | 0 | 0.0 | 0.0 | 0.00 | 0.00 | 0.00 | 47 | 1009.7 |
| 20260505004535 | 63 | 0 | 0.0 | 0.0 | 0.00 | 0.00 | 0.00 | 46 | 1009.6 |
| 20260505004019 | 63 | 0 | 0.0 | 0.0 | 0.00 | 0.00 | 0.00 | 46 | 1009.6 |
| 20260505003520 | 64 | 0 | 0.0 | 0.0 | 0.00 | 0.00 | 0.00 | 45 | 1009.5 |
| 20260505003035 | 64 | 0 | 0.0 | 0.0 | 0.00 | 0.00 | 0.00 | 45 | 1009.5 |
| 20260505002517 | 64 | 0 | 0.0 | 0.0 | 0.00 | 0.00 | 0.00 | 44 | 1009.3 |
| 20260505002017 | 65 | 0 | 0.0 | 0.0 | 0.00 | 0.00 | 0.00 | 44 | 1009.4 |
| 20260505001543 | 65 | 0 | 0.0 | 0.0 | 0.00 | 0.00 | 0.00 | 43 | 1009.4 |
| 20260505001016 | 66 | 0 | 0.0 | 0.0 | 0.00 | 0.00 | 0.00 | 43 | 1009.3 |
| 20260505000517 | 66 | 0 | 0.0 | 0.0 | 0.00 | 0.00 | 0.00 | 42 | 1009.2 |
| 20260505000035 | 66 | 0 | 0.0 | 0.0 | 0.00 | 0.00 | 0.00 | 42 | 1009.3 |
| 20260504235516 | 67 | 0 | 0.0 | 0.9 | 0.00 | 0.00 | 0.00 | 41 | 1009.1 |
| 20260504235016 | 67 | 0 | 0.0 | 5.2 | 0.00 | 0.00 | 0.00 | 40 | 1009.1 |
| 20260504234536 | 68 | 0 | 0.0 | 5.2 | 0.00 | 0.00 | 0.00 | 39 | 1009.0 |
| 20260504234016 | 68 | 0 | 0.9 | 6.1 | 0.00 | 0.00 | 0.00 | 38 | 1009.0 |
| 20260504233516 | 69 | 0 | 0.0 | 6.1 | 0.00 | 0.00 | 0.00 | 38 | 1008.9 |
| 20260504233035 | 69 | 196 | 0.9 | 6.1 | 0.00 | 0.00 | 0.00 | 37 | 1008.8 |
| 20260504232516 | 69 | 192 | 0.0 | 7.0 | 0.00 | 0.00 | 0.00 | 38 | 1008.9 |
| 20260504232017 | 69 | 0 | 0.0 | 7.0 | 0.00 | 0.00 | 0.00 | 37 | 1008.8 |
| 20260504231535 | 70 | 0 | 0.9 | 7.0 | 0.00 | 0.00 | 0.00 | 37 | 1008.8 |
| 20260504231016 | 70 | 168 | 0.0 | 6.1 | 0.00 | 0.00 | 0.00 | 36 | 1008.8 |
| 20260504230518 | 70 | 211 | 0.9 | 7.0 | 0.00 | 0.00 | 0.00 | 36 | 1008.7 |
| 20260504230043 | 71 | 0 | 0.9 | 7.0 | 0.00 | 0.00 | 0.00 | 35 | 1008.7 |
| 20260504225515 | 71 | 187 | 0.9 | 7.0 | 0.00 | 0.00 | 0.00 | 35 | 1008.6 |
| 20260504225017 | 71 | 0 | 0.9 | 7.0 | 0.00 | 0.00 | 0.00 | 35 | 1008.6 |
| 20260504224538 | 71 | 217 | 0.0 | 4.3 | 0.00 | 0.00 | 0.00 | 35 | 1008.6 |
| 20260504224016 | 71 | 196 | 0.9 | 7.0 | 0.00 | 0.00 | 0.00 | 34 | 1008.5 |
| 20260504223518 | 71 | 211 | 0.9 | 7.0 | 0.00 | 0.00 | 0.00 | 35 | 1008.7 |
| 20260504223035 | 72 | 182 | 1.7 | 8.7 | 0.00 | 0.00 | 0.00 | 33 | 1008.6 |
| 20260504222517 | 72 | 0 | 0.0 | 9.6 | 0.00 | 0.00 | 0.00 | 35 | 1008.7 |
| 20260504222016 | 72 | 302 | 2.6 | 9.6 | 0.00 | 0.00 | 0.00 | 33 | 1008.7 |
| 20260504221535 | 72 | 193 | 1.7 | 8.7 | 0.00 | 0.00 | 0.00 | 33 | 1008.6 |
| 20260504221019 | 72 | 317 | 0.0 | 7.0 | 0.00 | 0.00 | 0.00 | 33 | 1008.7 |
| 20260504220519 | 72 | 272 | 0.9 | 7.0 | 0.00 | 0.00 | 0.00 | 33 | 1008.7 |
| 20260504220034 | 73 | 0 | 0.9 | 5.2 | 0.00 | 0.00 | 0.00 | 32 | 1008.7 |
| 20260504215518 | 73 | 219 | 1.7 | 5.2 | 0.00 | 0.00 | 0.00 | 33 | 1008.8 |
| 20260504215017 | 73 | 0 | 0.0 | 7.0 | 0.00 | 0.00 | 0.00 | 33 | 1008.9 |
| 20260504214532 | 73 | 236 | 0.0 | 7.0 | 0.00 | 0.00 | 0.00 | 33 | 1008.9 |
| 20260504214017 | 73 | 274 | 0.9 | 7.0 | 0.00 | 0.00 | 0.00 | 33 | 1008.9 |
| 20260504213517 | 73 | 178 | 1.7 | 9.6 | 0.00 | 0.00 | 0.00 | 32 | 1008.9 |
| 20260504213036 | 73 | 200 | 1.7 | 9.6 | 0.00 | 0.00 | 0.00 | 32 | 1008.9 |
| 20260504212516 | 73 | 223 | 0.9 | 8.7 | 0.00 | 0.00 | 0.00 | 33 | 1009.0 |
| 20260504212022 | 74 | 306 | 1.7 | 8.7 | 0.00 | 0.00 | 0.00 | 32 | 1009.0 |
| 20260504211535 | 74 | 0 | 0.0 | 7.8 | 0.00 | 0.00 | 0.00 | 32 | 1009.1 |
| 20260504211015 | 73 | 215 | 1.7 | 7.8 | 0.00 | 0.00 | 0.00 | 33 | 1009.1 |
| 20260504210518 | 73 | 184 | 1.7 | 7.8 | 0.00 | 0.00 | 0.00 | 34 | 1009.2 |
| 20260504210053 | 73 | 267 | 0.0 | 7.0 | 0.00 | 0.00 | 0.00 | 35 | 1009.1 |
| 20260504205517 | 72 | 227 | 0.9 | 7.0 | 0.00 | 0.00 | 0.00 | 32 | 1009.2 |
| 20260504205020 | 73 | 268 | 0.9 | 7.0 | 0.00 | 0.00 | 0.00 | 33 | 1009.2 |
| 20260504204551 | 73 | 0 | 1.7 | 7.0 | 0.00 | 0.00 | 0.00 | 33 | 1009.1 |
| 20260504204016 | 73 | 258 | 0.9 | 8.7 | 0.00 | 0.00 | 0.00 | 33 | 1009.2 |
| 20260504203518 | 73 | 187 | 1.7 | 8.7 | 0.00 | 0.00 | 0.00 | 32 | 1009.2 |
| 20260504203036 | 73 | 0 | 0.9 | 10.4 | 0.00 | 0.00 | 0.00 | 32 | 1009.0 |
| 20260504202517 | 73 | 0 | 1.7 | 10.4 | 0.00 | 0.00 | 0.00 | 32 | 1009.2 |
| 20260504202016 | 73 | 0 | 0.9 | 9.6 | 0.00 | 0.00 | 0.00 | 31 | 1009.1 |
| 20260504201535 | 74 | 170 | 2.6 | 7.0 | 0.00 | 0.00 | 0.00 | 30 | 1009.1 |
| 20260504201018 | 73 | 0 | 0.9 | 7.0 | 0.00 | 0.00 | 0.00 | 32 | 1009.2 |
| 20260504200518 | 73 | 0 | 0.9 | 7.0 | 0.00 | 0.00 | 0.00 | 33 | 1009.1 |
| 20260504200035 | 74 | 254 | 0.9 | 10.4 | 0.00 | 0.00 | 0.00 | 32 | 1009.2 |
| 20260504195515 | 74 | 0 | 2.6 | 10.4 | 0.00 | 0.00 | 0.00 | 32 | 1009.1 |